DTA575 FNBJ-FAOR

Flight info

Callsign DTA575
Flight time N/A
Altitude 35000
Route ARGOL UN187 UVAMO UT942 UTVIN UM998 XOXAM UL435 ETOSA UZ10 PEDIL UQ19 AVAGO AVAGO1C
Aircraft B737/M-SDE2E3FGHIRWXY/LB1

Departure

Time 2026-04-30 08:15
Airport Dr. Antonio Agostinho Neto International Airport (FNBJ)

Arrival

Time N/A
Airport O.R. Tambo International Airport (FAOR)
Time Latitude Longitude Altitude Speed Heading
2026-04-30 07:37 -9.05195 13.49592 569 ft 0 kts 143°
2026-04-30 07:59 -9.05185 13.49584 569 ft 4 kts 143°
2026-04-30 07:59 -9.05163 13.49568 573 ft 4 kts 143°
2026-04-30 08:00 -9.05123 13.49552 566 ft 4 kts 219°
2026-04-30 08:00 -9.05106 13.49572 567 ft 4 kts 240°
2026-04-30 08:00 -9.05097 13.49587 567 ft 0 kts 233°
2026-04-30 08:03 -9.05104 13.49578 568 ft 5 kts 233°
2026-04-30 08:04 -9.05124 13.49551 570 ft 5 kts 232°
2026-04-30 08:04 -9.05145 13.49524 570 ft 5 kts 231°
2026-04-30 08:04 -9.05170 13.49493 569 ft 8 kts 230°
2026-04-30 08:04 -9.05214 13.49436 572 ft 11 kts 235°
2026-04-30 08:05 -9.05276 13.49425 567 ft 11 kts 145°
2026-04-30 08:05 -9.05334 13.49468 567 ft 10 kts 144°
2026-04-30 08:05 -9.05391 13.49509 567 ft 10 kts 151°
2026-04-30 08:05 -9.05445 13.49551 569 ft 10 kts 144°
2026-04-30 08:06 -9.05498 13.49590 570 ft 9 kts 144°
2026-04-30 08:06 -9.05550 13.49628 568 ft 9 kts 144°
2026-04-30 08:06 -9.05600 13.49667 570 ft 9 kts 142°
2026-04-30 08:06 -9.05648 13.49705 569 ft 9 kts 143°
2026-04-30 08:07 -9.05696 13.49741 572 ft 8 kts 143°
2026-04-30 08:07 -9.05743 13.49777 570 ft 9 kts 143°
2026-04-30 08:07 -9.05795 13.49816 573 ft 9 kts 144°
2026-04-30 08:07 -9.05847 13.49854 570 ft 9 kts 144°
2026-04-30 08:08 -9.05897 13.49890 573 ft 9 kts 144°
2026-04-30 08:08 -9.05946 13.49926 571 ft 9 kts 144°
2026-04-30 08:08 -9.05994 13.49960 569 ft 8 kts 144°
2026-04-30 08:08 -9.06040 13.49994 570 ft 8 kts 144°
2026-04-30 08:09 -9.06066 13.50038 569 ft 8 kts 80°
2026-04-30 08:09 -9.06033 13.50095 570 ft 11 kts 53°
2026-04-30 08:09 -9.05983 13.50162 572 ft 13 kts 53°
2026-04-30 08:09 -9.05925 13.50239 569 ft 15 kts 53°
2026-04-30 08:10 -9.05858 13.50328 569 ft 17 kts 53°
2026-04-30 08:10 -9.05784 13.50427 571 ft 18 kts 53°
2026-04-30 08:10 -9.05705 13.50533 573 ft 20 kts 53°
2026-04-30 08:10 -9.05620 13.50647 573 ft 21 kts 53°
2026-04-30 08:11 -9.05532 13.50767 570 ft 21 kts 53°
2026-04-30 08:11 -9.05441 13.50887 571 ft 22 kts 51°
2026-04-30 08:11 -9.05343 13.51012 572 ft 23 kts 56°
2026-04-30 08:11 -9.05253 13.51141 571 ft 22 kts 54°
2026-04-30 08:12 -9.05166 13.51267 570 ft 22 kts 54°
2026-04-30 08:12 -9.05078 13.51387 575 ft 21 kts 51°
2026-04-30 08:12 -9.04982 13.51505 570 ft 22 kts 55°
2026-04-30 08:12 -9.04918 13.51596 571 ft 7 kts 58°
2026-04-30 08:13 -9.04908 13.51629 571 ft 8 kts 94°
2026-04-30 08:13 -9.04947 13.51662 575 ft 2 kts 149°
2026-04-30 08:13 -9.04949 13.51663 572 ft 2 kts 148°
2026-04-30 08:14 -9.04966 13.51675 575 ft 3 kts 144°
2026-04-30 08:14 -9.05000 13.51701 573 ft 10 kts 142°
2026-04-30 08:14 -9.05044 13.51722 572 ft 9 kts 201°
2026-04-30 08:14 -9.05102 13.51646 571 ft 31 kts 234°
2026-04-30 08:15 -9.05376 13.51280 573 ft 97 kts 233°
2026-04-30 08:15 -9.05895 13.50574 572 ft 151 kts 233°
2026-04-30 08:15 -9.06586 13.49602 812 ft 177 kts 237°
2026-04-30 08:15 -9.07240 13.48486 1277 ft 195 kts 229°
2026-04-30 08:16 -9.08367 13.47910 2054 ft 177 kts 174°
2026-04-30 08:16 -9.09547 13.48163 2860 ft 177 kts 161°
2026-04-30 08:16 -9.10840 13.48535 3190 ft 213 kts 162°
2026-04-30 08:16 -9.12406 13.48951 3430 ft 249 kts 164°
2026-04-30 08:17 -9.14164 13.49361 4022 ft 266 kts 166°
2026-04-30 08:17 -9.16010 13.49740 4859 ft 273 kts 168°
2026-04-30 08:17 -9.17896 13.50085 5767 ft 277 kts 169°
2026-04-30 08:17 -9.19813 13.50403 6636 ft 282 kts 169°
2026-04-30 08:18 -9.21749 13.50699 7455 ft 286 kts 170°
2026-04-30 08:18 -9.23737 13.50987 8251 ft 291 kts 170°
2026-04-30 08:18 -9.25759 13.51267 9056 ft 296 kts 170°
2026-04-30 08:18 -9.27818 13.51544 9866 ft 301 kts 170°
2026-04-30 08:19 -9.29921 13.51820 10482 ft 312 kts 171°
2026-04-30 08:19 -9.32168 13.52113 10664 ft 338 kts 171°
2026-04-30 08:19 -9.34567 13.52422 11041 ft 354 kts 171°
2026-04-30 08:19 -9.37036 13.52735 11714 ft 360 kts 171°
2026-04-30 08:20 -9.39527 13.53048 12475 ft 362 kts 172°
2026-04-30 08:20 -9.42039 13.53362 13233 ft 365 kts 172°
2026-04-30 08:20 -9.44566 13.53678 13938 ft 368 kts 172°
2026-04-30 08:20 -9.47116 13.53996 14577 ft 370 kts 172°
2026-04-30 08:21 -9.49683 13.54317 15233 ft 372 kts 173°
2026-04-30 08:21 -9.52263 13.54641 15910 ft 374 kts 173°
2026-04-30 08:21 -9.54849 13.54966 16626 ft 374 kts 174°
2026-04-30 08:21 -9.57435 13.55290 17252 ft 376 kts 174°
2026-04-30 08:22 -9.60045 13.55617 17821 ft 380 kts 174°
2026-04-30 08:22 -9.62679 13.55947 18397 ft 383 kts 174°
2026-04-30 08:22 -9.65297 13.56276 18907 ft 385 kts 174°
2026-04-30 08:22 -9.67966 13.56612 19389 ft 388 kts 174°
2026-04-30 08:23 -9.70665 13.56950 19863 ft 391 kts 174°
2026-04-30 08:23 -9.73383 13.57292 20338 ft 394 kts 174°
2026-04-30 08:23 -9.76121 13.57635 20804 ft 397 kts 174°
2026-04-30 08:23 -9.78868 13.57980 21257 ft 400 kts 174°
2026-04-30 08:24 -9.81648 13.58330 21709 ft 403 kts 174°
2026-04-30 08:24 -9.84445 13.58682 22162 ft 406 kts 174°
2026-04-30 08:24 -9.87267 13.59036 22605 ft 409 kts 174°
2026-04-30 08:24 -9.90103 13.59393 23038 ft 412 kts 174°
2026-04-30 08:25 -9.92955 13.59751 23464 ft 415 kts 174°
2026-04-30 08:25 -9.95794 13.60108 23856 ft 417 kts 174°
2026-04-30 08:25 -9.98677 13.60471 24223 ft 419 kts 174°
2026-04-30 08:25 -10.01578 13.60836 24561 ft 421 kts 174°
2026-04-30 08:26 -10.04500 13.61204 24888 ft 424 kts 174°
2026-04-30 08:26 -10.07431 13.61573 25226 ft 426 kts 174°
2026-04-30 08:26 -10.10387 13.61945 25563 ft 429 kts 174°
2026-04-30 08:26 -10.13348 13.62351 25907 ft 431 kts 170°
2026-04-30 08:27 -10.16273 13.63070 26219 ft 433 kts 165°
2026-04-30 08:27 -10.19182 13.63937 26533 ft 436 kts 163°
2026-04-30 08:27 -10.22088 13.64841 26848 ft 438 kts 163°
2026-04-30 08:27 -10.25003 13.65749 27152 ft 440 kts 163°
2026-04-30 08:28 -10.27954 13.66656 27458 ft 442 kts 163°
2026-04-30 08:28 -10.30869 13.67540 27742 ft 445 kts 163°
2026-04-30 08:28 -10.33850 13.68434 28017 ft 447 kts 164°
2026-04-30 08:28 -10.36839 13.69325 28306 ft 449 kts 164°
2026-04-30 08:29 -10.39849 13.70218 28606 ft 451 kts 164°
2026-04-30 08:29 -10.42860 13.71113 28879 ft 453 kts 163°
2026-04-30 08:29 -10.45893 13.72014 29148 ft 455 kts 163°
2026-04-30 08:29 -10.48951 13.72924 29391 ft 457 kts 163°
2026-04-30 08:30 -10.52011 13.73835 29674 ft 459 kts 163°
2026-04-30 08:30 -10.55077 13.74748 29934 ft 460 kts 163°
2026-04-30 08:30 -10.58162 13.75666 30164 ft 462 kts 163°
2026-04-30 08:30 -10.61247 13.76585 30465 ft 461 kts 163°
2026-04-30 08:31 -10.64313 13.77498 30836 ft 458 kts 164°
2026-04-30 08:31 -10.67333 13.78398 31152 ft 458 kts 164°
2026-04-30 08:31 -10.70393 13.79310 31454 ft 458 kts 164°
2026-04-30 08:31 -10.73446 13.80221 31814 ft 456 kts 163°
2026-04-30 08:32 -10.76411 13.81369 32204 ft 455 kts 155°
2026-04-30 08:32 -10.79165 13.82942 32611 ft 453 kts 147°
2026-04-30 08:32 -10.81652 13.84909 32974 ft 453 kts 141°
2026-04-30 08:32 -10.84050 13.86996 33301 ft 453 kts 140°
2026-04-30 08:33 -10.86429 13.89104 33590 ft 454 kts 140°
2026-04-30 08:33 -10.88809 13.91216 33928 ft 453 kts 140°
2026-04-30 08:33 -10.91186 13.93317 34263 ft 452 kts 140°
2026-04-30 08:33 -10.93568 13.95409 34558 ft 451 kts 140°
2026-04-30 08:34 -10.95944 13.97486 34804 ft 451 kts 140°
2026-04-30 08:34 -10.98330 13.99565 35000 ft 452 kts 140°
2026-04-30 08:34 -11.00733 14.01655 34989 ft 456 kts 140°
2026-04-30 08:35 -11.05529 14.05822 35002 ft 456 kts 140°
2026-04-30 08:35 -11.10311 14.09979 35014 ft 450 kts 140°
2026-04-30 08:36 -11.15100 14.14145 35028 ft 449 kts 140°
2026-04-30 08:36 -11.19809 14.18245 35026 ft 448 kts 140°
2026-04-30 08:37 -11.24551 14.22374 35040 ft 448 kts 140°
2026-04-30 08:37 -11.29286 14.26499 35044 ft 448 kts 140°
2026-04-30 08:38 -11.34027 14.30632 35040 ft 448 kts 140°
2026-04-30 08:38 -11.38779 14.34776 35046 ft 449 kts 140°
2026-04-30 08:39 -11.43532 14.38921 35065 ft 450 kts 140°
2026-04-30 08:39 -11.48277 14.43063 35060 ft 452 kts 140°
2026-04-30 08:40 -11.53058 14.47238 35049 ft 452 kts 140°
2026-04-30 08:40 -11.57840 14.51417 35072 ft 453 kts 140°
2026-04-30 08:41 -11.62633 14.55605 35070 ft 454 kts 140°
2026-04-30 08:41 -11.67427 14.59797 35072 ft 454 kts 140°
2026-04-30 08:42 -11.72225 14.63996 35072 ft 454 kts 140°
2026-04-30 08:42 -11.77001 14.68176 35074 ft 454 kts 140°
2026-04-30 08:43 -11.81785 14.72366 35085 ft 453 kts 140°
2026-04-30 08:43 -11.86573 14.76561 35084 ft 453 kts 140°
2026-04-30 08:44 -11.91355 14.80752 35086 ft 453 kts 140°
2026-04-30 08:44 -11.96149 14.84956 35090 ft 453 kts 140°
2026-04-30 08:45 -12.00935 14.89155 35087 ft 453 kts 140°
2026-04-30 08:45 -12.05715 14.93352 35087 ft 453 kts 141°
2026-04-30 08:46 -12.10466 14.97525 35092 ft 453 kts 141°
2026-04-30 08:46 -12.15270 15.01745 35098 ft 452 kts 141°
2026-04-30 08:47 -12.20013 15.05915 35095 ft 452 kts 141°
2026-04-30 08:47 -12.24785 15.10111 35107 ft 452 kts 140°
2026-04-30 08:48 -12.29561 15.14314 35102 ft 452 kts 141°
2026-04-30 08:48 -12.34335 15.18518 35101 ft 453 kts 140°
2026-04-30 08:49 -12.39110 15.22725 35118 ft 453 kts 140°
2026-04-30 08:49 -12.43895 15.26940 35114 ft 454 kts 140°
2026-04-30 08:50 -12.48671 15.31151 35107 ft 454 kts 140°
2026-04-30 08:50 -12.53426 15.35346 35105 ft 454 kts 140°
2026-04-30 08:51 -12.58240 15.39594 35112 ft 454 kts 140°
2026-04-30 08:51 -12.63027 15.43823 35122 ft 454 kts 140°
2026-04-30 08:52 -12.67782 15.48024 35143 ft 454 kts 140°
2026-04-30 08:52 -12.72570 15.52257 35184 ft 455 kts 140°
2026-04-30 08:53 -12.77367 15.56499 35213 ft 455 kts 140°
2026-04-30 08:53 -12.82152 15.60733 35242 ft 454 kts 140°
2026-04-30 08:54 -12.86942 15.64973 35242 ft 455 kts 140°
2026-04-30 08:54 -12.91724 15.69209 35238 ft 454 kts 140°
2026-04-30 08:55 -12.96508 15.73450 35221 ft 454 kts 140°
2026-04-30 08:55 -13.01263 15.77667 35194 ft 455 kts 140°
2026-04-30 08:56 -13.06044 15.81910 35162 ft 455 kts 140°
2026-04-30 08:56 -13.10839 15.86167 35126 ft 455 kts 140°
2026-04-30 08:57 -13.15619 15.90412 35109 ft 455 kts 140°
2026-04-30 08:57 -13.20415 15.94676 35106 ft 455 kts 140°
2026-04-30 08:58 -13.25199 15.98928 35098 ft 455 kts 140°
2026-04-30 08:58 -13.29978 16.03179 35096 ft 455 kts 140°
2026-04-30 08:59 -13.34730 16.07409 35104 ft 455 kts 140°
2026-04-30 08:59 -13.39509 16.11666 35107 ft 455 kts 140°
2026-04-30 09:00 -13.43517 16.15237 35099 ft 455 kts 140°
2026-04-30 09:00 -13.48269 16.19474 35109 ft 455 kts 140°
2026-04-30 09:01 -13.53046 16.23735 35104 ft 455 kts 140°
2026-04-30 09:01 -13.57835 16.28009 35091 ft 456 kts 140°
2026-04-30 09:02 -13.65016 16.34423 35091 ft 456 kts 140°
2026-04-30 09:02 -13.69805 16.38705 35087 ft 456 kts 140°
2026-04-30 09:03 -13.74596 16.42988 35089 ft 456 kts 140°
2026-04-30 09:03 -13.79370 16.47297 35086 ft 457 kts 139°
2026-04-30 09:04 -13.84117 16.51637 35079 ft 456 kts 139°
2026-04-30 09:04 -13.88865 16.55983 35086 ft 457 kts 139°
2026-04-30 09:05 -13.93623 16.60335 35082 ft 457 kts 139°
2026-04-30 09:05 -13.98372 16.64677 35083 ft 457 kts 139°
2026-04-30 09:06 -14.03093 16.68995 35081 ft 457 kts 139°
2026-04-30 09:06 -14.07849 16.73347 35077 ft 457 kts 139°
2026-04-30 09:07 -14.12599 16.77696 35076 ft 457 kts 139°
2026-04-30 09:07 -14.17359 16.82057 35083 ft 457 kts 139°
2026-04-30 09:08 -14.22115 16.86418 35072 ft 457 kts 139°
2026-04-30 09:08 -14.26836 16.90747 35071 ft 457 kts 139°
2026-04-30 09:09 -14.31588 16.95109 35064 ft 457 kts 139°
2026-04-30 09:09 -14.36340 16.99472 35068 ft 457 kts 139°
2026-04-30 09:10 -14.41085 17.03834 35072 ft 457 kts 139°
2026-04-30 09:10 -14.45836 17.08202 35062 ft 457 kts 139°
2026-04-30 09:11 -14.50590 17.12575 35062 ft 457 kts 139°
2026-04-30 09:11 -14.55332 17.16940 35068 ft 457 kts 139°
2026-04-30 09:12 -14.60054 17.21288 35060 ft 457 kts 139°
2026-04-30 09:12 -14.64800 17.25663 35061 ft 458 kts 139°
2026-04-30 09:13 -14.69552 17.30046 35065 ft 458 kts 139°
2026-04-30 09:13 -14.74308 17.34434 35067 ft 458 kts 139°
2026-04-30 09:14 -14.79067 17.38828 35062 ft 458 kts 139°
2026-04-30 09:14 -14.83823 17.43223 35046 ft 459 kts 139°
2026-04-30 09:15 -14.88559 17.47599 35050 ft 459 kts 139°
2026-04-30 09:15 -14.93317 17.52001 35046 ft 459 kts 139°
2026-04-30 09:16 -14.98078 17.56409 35042 ft 459 kts 139°
2026-04-30 09:16 -15.02829 17.60810 35033 ft 458 kts 139°
2026-04-30 09:17 -15.07577 17.65210 35031 ft 458 kts 139°
2026-04-30 09:17 -15.12323 17.69610 35041 ft 457 kts 139°
2026-04-30 09:18 -15.17067 17.74013 35037 ft 458 kts 139°
2026-04-30 09:18 -15.21788 17.78395 35034 ft 459 kts 139°
2026-04-30 09:19 -15.26552 17.82820 35029 ft 460 kts 139°
2026-04-30 09:19 -15.31319 17.87252 35036 ft 460 kts 139°
2026-04-30 09:20 -15.36091 17.91693 35039 ft 461 kts 139°
2026-04-30 09:20 -15.40865 17.96138 35035 ft 461 kts 139°
2026-04-30 09:21 -15.45644 18.00592 35031 ft 462 kts 139°
2026-04-30 09:21 -15.50390 18.05014 35034 ft 462 kts 139°
2026-04-30 09:22 -15.55178 18.09478 35029 ft 462 kts 139°
2026-04-30 09:22 -15.59952 18.13934 35019 ft 461 kts 139°
2026-04-30 09:23 -15.64728 18.18393 35012 ft 461 kts 139°
2026-04-30 09:23 -15.69489 18.22843 35014 ft 460 kts 139°
2026-04-30 09:24 -15.74243 18.27289 35020 ft 460 kts 139°
2026-04-30 09:24 -15.78999 18.31741 35023 ft 460 kts 139°
2026-04-30 09:25 -15.83747 18.36187 35011 ft 460 kts 139°
2026-04-30 09:25 -15.88508 18.40647 35021 ft 460 kts 139°
2026-04-30 09:26 -15.93272 18.45112 35025 ft 461 kts 139°
2026-04-30 09:26 -15.98013 18.49560 35023 ft 461 kts 139°
2026-04-30 09:27 -16.02777 18.54032 35008 ft 462 kts 139°
2026-04-30 09:27 -16.07541 18.58509 35014 ft 462 kts 139°
2026-04-30 09:28 -16.12309 18.62992 35022 ft 461 kts 139°
2026-04-30 09:28 -16.17079 18.67479 35025 ft 462 kts 139°
2026-04-30 09:29 -16.21848 18.71968 35016 ft 462 kts 139°
2026-04-30 09:29 -16.26621 18.76465 35019 ft 462 kts 139°
2026-04-30 09:30 -16.31353 18.80926 35021 ft 462 kts 139°
2026-04-30 09:30 -16.36151 18.85452 35021 ft 462 kts 139°
2026-04-30 09:31 -16.40890 18.89926 35019 ft 463 kts 139°
2026-04-30 09:31 -16.45660 18.94432 35015 ft 463 kts 139°
2026-04-30 09:32 -16.50435 18.98946 35027 ft 463 kts 139°
2026-04-30 09:32 -16.55207 19.03460 35016 ft 463 kts 139°
2026-04-30 09:33 -16.59978 19.07976 35020 ft 463 kts 139°
2026-04-30 09:33 -16.64725 19.12472 35016 ft 464 kts 139°
2026-04-30 09:34 -16.69502 19.17001 35018 ft 464 kts 139°
2026-04-30 09:34 -16.74272 19.21526 35013 ft 464 kts 139°
2026-04-30 09:35 -16.79048 19.26059 35016 ft 463 kts 139°
2026-04-30 09:35 -16.83824 19.30597 35003 ft 464 kts 139°
2026-04-30 09:36 -16.88565 19.35104 35019 ft 464 kts 139°
2026-04-30 09:36 -16.93332 19.39638 35017 ft 464 kts 139°
2026-04-30 09:37 -16.98104 19.44181 35015 ft 464 kts 139°
2026-04-30 09:37 -17.02884 19.48733 35017 ft 464 kts 139°
2026-04-30 09:38 -17.07660 19.53286 35020 ft 465 kts 139°
2026-04-30 09:38 -17.12436 19.57844 35018 ft 465 kts 139°
2026-04-30 09:39 -17.17221 19.62413 35020 ft 465 kts 139°
2026-04-30 09:39 -17.22005 19.66985 35017 ft 466 kts 139°
2026-04-30 09:40 -17.26789 19.71558 35022 ft 466 kts 139°
2026-04-30 09:40 -17.31588 19.76148 35018 ft 467 kts 139°
2026-04-30 09:41 -17.36379 19.80737 35017 ft 467 kts 139°
2026-04-30 09:41 -17.41138 19.85298 35024 ft 467 kts 139°
2026-04-30 09:42 -17.45939 19.89902 35005 ft 467 kts 139°
2026-04-30 09:42 -17.50734 19.94505 35015 ft 467 kts 139°
2026-04-30 09:43 -17.55537 19.99116 35016 ft 467 kts 139°
2026-04-30 09:43 -17.60328 20.03722 35012 ft 467 kts 139°
2026-04-30 09:44 -17.64316 20.07558 35014 ft 467 kts 139°
2026-04-30 09:44 -17.69885 20.12919 35016 ft 467 kts 139°
2026-04-30 09:45 -17.73895 20.16782 35015 ft 467 kts 139°
2026-04-30 09:45 -17.78681 20.21396 35017 ft 467 kts 139°
2026-04-30 09:46 -17.83458 20.26006 35016 ft 467 kts 139°
2026-04-30 09:46 -17.88251 20.30606 35014 ft 466 kts 141°
2026-04-30 09:47 -17.94107 20.35577 35015 ft 465 kts 143°
2026-04-30 09:47 -17.98351 20.39032 35017 ft 465 kts 143°
2026-04-30 09:48 -18.03458 20.43226 35011 ft 465 kts 143°
2026-04-30 09:48 -18.08537 20.47441 35025 ft 465 kts 143°
2026-04-30 09:49 -18.13610 20.51671 35020 ft 465 kts 143°
2026-04-30 09:49 -18.18678 20.55903 35020 ft 465 kts 143°
2026-04-30 09:50 -18.23745 20.60136 35015 ft 465 kts 143°
2026-04-30 09:50 -18.28812 20.64369 35026 ft 465 kts 143°
2026-04-30 09:51 -18.33894 20.68616 35020 ft 466 kts 143°
2026-04-30 09:51 -18.38970 20.72862 35023 ft 466 kts 143°
2026-04-30 09:52 -18.44045 20.77113 35022 ft 467 kts 143°
2026-04-30 09:52 -18.49102 20.81352 35018 ft 468 kts 143°
2026-04-30 09:53 -18.54198 20.85627 35021 ft 468 kts 143°
2026-04-30 09:53 -18.59288 20.89900 35032 ft 468 kts 143°
2026-04-30 09:54 -18.64386 20.94182 35019 ft 469 kts 143°
2026-04-30 09:54 -18.69492 20.98477 35022 ft 469 kts 143°
2026-04-30 09:55 -18.74601 21.02777 35026 ft 469 kts 143°
2026-04-30 09:55 -18.79707 21.07080 35023 ft 470 kts 143°
2026-04-30 09:56 -18.84813 21.11387 35021 ft 470 kts 143°
2026-04-30 09:56 -18.89927 21.15706 35020 ft 470 kts 143°
2026-04-30 09:57 -18.94995 21.19991 35023 ft 470 kts 143°
2026-04-30 09:57 -19.00104 21.24310 35023 ft 470 kts 143°
2026-04-30 09:58 -19.05215 21.28635 35022 ft 471 kts 143°
2026-04-30 09:58 -19.10328 21.32966 35021 ft 471 kts 143°
2026-04-30 09:59 -19.20550 21.41637 35021 ft 471 kts 143°
2026-04-30 10:00 -19.28188 21.48123 35032 ft 471 kts 143°
2026-04-30 10:01 -19.35862 21.54651 35029 ft 472 kts 143°